Lapse_Rate
4.9 5.1 4.9 4.4 4.9 5.0 5.2 5.4 5.7 5.6 5.6 5.4 5.4 5.5 5.3 5.3 5.3 5.4 5.4 5.4 5.6 5.7 6.1 6.4 6.5 6.5 6.7 6.9 6.5 6.3 6.2 6.1 6.0 6.2 6.2 6.2 6.2 6.2 6.3 6.2 6.2 6.1 6.2
5.0 5.1 4.9 4.5 4.7 4.8 4.9 5.2 5.3 5.4 5.2 5.1 5.3 5.3 5.3 5.0 5.1 5.4 5.5 5.4 5.6 5.9 6.2 6.4 6.6 6.7 6.6 6.5 6.3 6.3 6.1 6.1 6.2 6.1 6.1 6.3 6.2 6.2 6.2 6.1 6.1 6.3 6.4
4.7 4.9 4.8 4.1 4.6 4.8 4.8 5.1 5.0 4.9 5.1 5.2 5.0 5.1 5.2 5.2 5.2 5.4 5.4 5.5 5.6 5.7 6.1 6.6 6.5 6.7 6.6 6.4 6.5 6.2 6.2 6.2 6.2 6.3 6.2 6.1 6.2 6.2 6.2 6.3 6.4 6.5 6.4
4.5 4.3 4.5 4.5 4.0 4.8 5.0 4.9 4.8 4.8 4.8 5.1 5.0 5.2 5.2 5.0 5.0 4.9 5.0 5.2 5.5 5.8 6.5 6.5 6.6 6.6 6.7 6.7 6.3 6.2 6.2 6.3 6.2 6.1 6.2 6.2 6.2 6.2 6.2 6.3 6.3 6.2 6.2
4.5 4.6 4.2 3.6 4.1 4.4 4.6 4.5 4.5 4.6 4.8 4.8 4.9 4.9 5.1 5.0 5.0 4.9 5.0 5.3 5.8 6.2 6.4 6.6 6.7 6.7 6.5 6.3 6.2 6.2 6.2 6.0 6.0 5.9 5.8 5.8 6.0 6.0 6.1 6.2 6.1 6.1 6.2
4.7 4.2 3.7 3.5 3.9 4.1 4.0 3.9 3.9 4.0 4.3 4.8 4.7 5.1 4.9 5.0 5.2 5.1 5.3 5.7 6.1 6.3 6.4 6.8 6.7 6.7 6.4 5.9 5.8 6.1 5.9 5.8 5.7 5.7 5.6 5.5 5.5 5.8 5.8 6.0 5.9 6.1 6.0
4.1 4.0 3.8 3.8 3.7 3.9 4.4 4.5 4.7 4.6 4.9 5.2 5.2 5.4 5.2 5.2 5.3 5.2 5.5 6.0 6.2 6.2 6.3 6.5 6.6 6.3 6.1 5.9 6.0 5.8 5.8 5.9 5.7 5.6 5.7 5.6 5.5 5.4 5.7 5.8 5.7 5.6 5.7
4.4 3.8 4.0 4.1 4.1 4.3 4.7 4.6 4.7 4.8 5.0 5.4 5.5 5.4 5.4 5.5 5.4 5.4 5.9 6.2 6.1 6.0 6.1 6.1 6.1 6.0 6.0 6.0 5.8 6.0 5.7 5.3 5.4 5.8 6.0 6.0 5.7 6.0 6.0 6.0 6.1 6.0 5.9
4.6 4.3 4.2 4.2 4.1 4.7 4.7 4.8 4.7 4.8 5.1 5.3 5.4 5.4 5.6 5.9 5.8 5.8 5.9 5.9 6.0 6.2 6.2 5.8 5.8 5.9 5.8 5.8 6.0 5.8 5.7 5.4 5.7 5.5 5.5 5.6 5.8 5.8 5.7 5.6 5.6 5.9 6.2
4.9 4.6 4.5 4.7 4.7 4.8 4.7 4.7 4.7 4.8 5.2 5.3 5.2 5.4 5.6 5.7 5.9 6.0 5.9 5.7 6.0 6.0 5.9 5.7 5.8 5.8 6.0 5.7 5.7 5.6 6.0 5.4 5.2 5.3 5.2 4.7 5.1 5.1 5.0 4.9 4.9 5.0 4.9
5.0 5.0 4.6 4.3 4.6 4.9 4.8 4.6 4.9 5.0 5.4 5.3 5.5 5.5 5.7 5.9 5.9 5.9 6.0 6.0 6.0 5.9 5.8 5.8 5.8 5.6 5.6 5.6 5.8 5.8 5.7 5.5 5.5 5.3 5.2 4.9 4.8 5.0 5.1 5.1 5.1 5.1 5.2
5.2 4.8 4.6 4.7 4.8 5.1 4.9 4.8 4.9 5.3 5.5 5.8 6.0 5.8 5.8 5.9 5.9 5.8 6.1 6.1 5.9 6.0 6.2 5.9 5.7 5.6 5.5 5.5 5.5 5.6 5.8 5.5 5.2 5.5 5.3 5.2 5.1 5.2 5.2 5.4 5.4 5.6 5.6
5.4 5.4 5.1 5.2 5.2 5.2 5.2 5.2 5.3 5.4 5.7 5.9 5.8 5.8 5.8 5.8 5.6 5.7 5.8 6.0 5.8 6.1 5.6 5.6 5.9 5.9 5.6 5.2 5.3 5.6 5.6 5.4 5.6 5.6 5.5 5.2 5.3 5.2 5.2 5.4 5.5 5.7 5.6
5.6 5.4 5.5 5.1 5.0 5.0 4.9 5.0 5.2 5.3 5.5 5.6 5.7 5.9 5.9 5.8 5.8 6.0 6.0 6.0 5.8 5.7 5.8 5.7 5.5 6.0 5.4 5.3 5.4 5.7 5.6 5.2 5.3 5.3 5.4 5.6 5.5 5.4 5.4 5.5 5.6 5.7 5.6
5.2 5.2 5.1 5.3 5.0 5.0 5.1 5.4 5.5 5.5 5.4 5.6 5.7 5.9 6.2 6.3 6.0 6.0 6.0 5.8 5.5 5.5 6.0 5.8 5.4 5.8 5.8 5.4 5.7 5.5 5.6 5.2 5.3 5.1 5.4 5.4 5.5 5.7 5.7 5.7 5.7 5.5 5.4
5.7 5.5 5.2 4.9 4.9 4.9 5.3 5.7 5.8 5.9 6.0 6.3 6.2 6.1 6.2 6.1 6.0 6.1 5.7 5.6 5.6 5.6 5.6 5.9 5.5 5.6 5.9 5.6 5.8 5.7 5.5 5.5 5.6 5.5 5.3 5.4 5.5 5.6 5.8 5.7 5.5 5.4 5.4
6.5 6.2 6.2 5.8 5.6 5.8 5.6 5.6 5.7 5.7 5.8 6.0 6.0 6.1 6.3 6.2 5.9 5.8 5.6 5.5 5.5 5.6 5.7 5.8 5.5 5.7 6.0 5.7 5.3 5.6 5.4 5.6 5.4 5.7 5.2 5.1 5.2 5.5 5.6 5.4 5.4 5.2 5.2
6.6 6.5 6.5 6.4 6.4 6.4 6.0 6.0 6.0 6.0 5.9 6.2 6.4 6.2 6.1 6.1 5.8 5.6 5.5 5.6 5.2 5.3 5.7 5.7 5.6 5.8 5.9 5.3 5.5 5.7 5.7 5.6 5.4 5.0 5.1 5.2 5.2 5.4 5.5 5.3 5.1 5.0 5.1
7.0 6.8 6.8 6.8 6.7 6.6 6.5 6.5 6.5 6.5 6.4 6.4 6.3 6.1 6.1 5.5 5.5 5.5 5.7 5.6 5.4 5.6 5.7 5.9 5.9 5.8 5.8 5.6 6.1 5.8 5.7 5.4 5.1 5.1 4.9 5.2 5.2 5.4 5.1 5.2 5.2 5.1 5.0
7.1 7.1 6.9 6.9 6.9 6.7 6.6 6.5 6.4 6.5 6.6 6.5 6.4 6.1 6.0 5.7 5.9 5.7 5.6 5.7 5.6 5.6 5.8 5.7 5.8 6.0 6.0 5.8 5.7 5.7 5.3 5.1 5.0 5.1 5.0 5.3 5.4 5.3 5.2 5.1 4.9 4.7 4.5
7.4 7.3 7.0 6.9 6.7 6.7 6.7 6.6 6.3 6.4 6.2 6.3 6.2 6.1 5.6 5.6 5.8 5.7 6.0 6.0 5.9 6.1 6.0 6.2 6.3 5.7 6.1 5.9 5.7 5.4 5.2 5.0 4.9 5.3 5.4 5.3 5.5 5.4 5.0 4.7 4.5 4.5 4.6
7.5 7.4 7.3 7.2 7.0 6.7 6.7 6.7 6.5 6.2 6.1 6.0 5.8 5.9 5.5 5.8 5.8 5.8 5.8 5.9 6.2 6.1 6.3 6.2 6.2 6.2 6.4 6.2 5.7 5.6 5.4 5.4 5.0 5.4 5.4 5.4 5.3 5.0 4.6 4.3 4.2 4.2 4.2
7.6 7.6 7.6 7.5 7.2 7.0 6.9 6.9 6.8 6.2 6.1 5.9 6.0 5.9 6.0 6.0 5.8 5.8 5.9 6.3 6.4 6.3 6.2 6.4 6.5 6.1 5.9 5.9 6.0 5.3 5.4 5.2 5.1 5.4 5.4 5.1 4.6 4.3 4.2 3.9 3.9 4.0 4.0
7.8 7.7 7.8 7.7 7.3 7.2 7.1 6.9 7.0 6.5 6.0 6.1 6.3 6.4 6.3 6.4 6.4 6.4 6.4 6.6 6.5 6.5 6.4 6.3 5.7 6.0 5.6 5.6 5.4 5.2 5.2 5.1 5.1 5.0 4.6 4.6 3.9 4.0 3.8 3.6 3.7 3.7 3.8
8.0 7.9 7.8 7.8 7.6 7.4 7.2 7.1 7.1 6.6 6.4 6.4 6.4 6.4 6.4 6.5 6.3 6.2 6.3 6.3 6.4 6.4 6.3 6.3 5.9 5.5 5.2 5.4 5.2 5.2 5.2 5.3 5.0 4.4 4.0 3.6 3.9 3.8 3.7 3.7 3.6 3.7 3.7
8.3 8.3 8.1 8.0 7.9 7.6 7.4 7.2 7.0 7.0 6.8 6.7 6.5 6.6 6.6 6.5 6.3 6.2 6.5 6.5 6.3 6.5 6.3 6.0 5.9 5.5 5.5 5.2 5.2 5.0 5.2 5.0 4.7 4.3 3.8 3.6 3.4 3.3 3.7 3.8 3.7 3.8 3.8
Wind_Speed
11 18 16 16 18 20 18 17 15 16 15 16 12 14 10 10 17 19 19 19 18 18 17 16 16 15 15 14 13 13 12 11 10 10 10 10 10 9 8 8 8 8 8
11 13 11 19 16 20 19 16 14 14 12 14 13 13 12 12 15 19 19 18 18 17 17 15 15 14 14 13 12 12 11 11 10 9 9 8 8 7 6 5 5 4 5
19 18 10 9 12 18 16 11 12 13 10 14 10 12 13 12 12 17 19 18 17 15 16 16 15 14 13 13 11 10 9 9 9 9 10 9 8 7 6 5 4 3 2
16 14 5 6 14 13 12 9 6 6 8 8 9 9 11 12 12 11 16 18 18 17 15 16 16 15 14 13 12 11 11 10 11 11 11 11 10 10 8 7 6 5 4
12 12 6 7 13 11 5 4 3 4 7 7 9 8 7 7 11 12 10 11 15 15 17 21 19 18 17 16 14 14 14 13 13 12 12 11 12 11 10 10 8 8 9
18 15 13 14 14 8 6 5 3 4 5 7 9 8 6 6 11 9 10 11 10 11 11 20 20 19 20 20 18 16 16 15 15 15 14 14 14 14 14 13 12 12 12
22 20 14 12 11 6 7 9 8 8 7 6 7 7 6 6 7 7 10 11 12 14 14 13 18 18 23 27 24 22 22 20 20 19 18 18 18 17 17 17 16 16 15
21 17 14 10 11 9 10 10 10 7 7 6 7 7 6 6 7 8 7 6 10 15 15 14 12 13 15 21 24 26 25 22 21 21 22 22 22 21 21 21 21 20 20
17 14 15 11 9 8 10 11 10 11 8 7 5 1 3 4 5 6 8 7 8 7 11 12 16 18 18 18 19 24 30 28 21 18 17 16 22 24 24 25 25 25 25
16 17 17 14 12 7 11 9 8 7 6 7 3 5 5 0 2 1 3 8 3 5 7 12 16 17 18 18 21 18 22 28 26 20 18 17 17 16 17 19 22 23 27
17 19 17 14 8 5 8 9 7 9 7 5 6 5 7 6 4 5 5 6 8 9 10 13 16 16 19 21 19 20 25 20 20 20 15 15 18 17 18 17 19 20 23
9 8 12 8 8 6 7 6 9 12 10 9 5 5 6 8 8 6 8 8 8 4 4 5 7 14 18 17 20 18 20 20 19 19 16 15 14 11 11 12 14 16 19
7 9 9 9 7 9 10 8 10 10 10 9 10 8 9 8 7 7 7 8 7 4 3 6 10 15 17 15 17 20 17 17 21 19 15 12 9 8 8 10 12 14 16
11 13 13 13 12 13 10 11 9 9 10 8 11 10 9 8 9 9 9 7 2 6 7 9 5 8 10 14 16 20 15 19 17 16 13 10 8 6 7 8 11 13 15
13 15 16 16 16 13 12 13 9 11 9 9 11 10 10 9 8 8 8 8 8 5 8 8 4 13 17 16 12 14 14 19 17 14 13 9 7 7 7 9 10 13 14
20 20 19 19 17 16 17 17 14 13 13 10 9 13 13 11 11 8 7 6 7 7 5 8 8 8 13 13 15 16 15 21 18 14 11 9 6 7 9 10 12 13 13
20 20 19 19 19 19 19 18 17 16 16 15 16 15 15 12 7 6 7 6 7 7 8 5 6 8 10 10 13 11 11 14 14 19 16 11 8 9 11 12 13 13 14
19 20 19 20 20 20 19 19 19 17 18 17 16 14 15 9 12 13 9 13 10 9 9 10 6 6 8 9 7 9 14 12 11 15 13 10 9 13 14 15 14 13 14
18 19 19 20 21 20 20 20 19 18 18 18 17 16 15 15 12 10 10 10 9 8 10 6 6 4 5 3 7 5 2 4 7 8 11 14 16 17 16 16 16 16 16
19 19 20 20 19 19 20 19 19 19 19 18 16 14 15 14 15 13 11 12 9 9 10 9 3 5 2 4 3 4 3 5 6 13 12 13 12 15 19 21 22 20 22
20 21 20 20 20 18 16 20 20 20 19 16 15 16 10 14 18 14 9 11 10 9 7 8 3 4 4 4 7 3 4 2 3 6 7 8 11 14 14 22 23 24 23
20 19 20 20 20 15 17 17 17 17 17 17 13 10 8 12 15 14 13 9 12 13 11 7 5 7 7 7 4 4 3 4 5 9 7 6 8 6 11 14 13 7 12
19 20 20 19 20 20 16 16 17 15 11 15 14 12 7 5 7 8 13 14 11 12 5 5 5 1 3 5 6 4 4 3 6 7 6 7 6 8 13 18 15 15 13
19 18 18 19 18 16 16 19 17 12 13 14 11 10 9 9 9 12 11 8 9 8 7 5 5 5 3 3 5 3 6 7 6 8 8 8 7 8 9 14 15 12 17
16 17 15 17 17 15 11 14 11 7 4 4 4 5 8 8 14 18 13 11 9 8 13 17 16 12 10 10 8 3 5 4 6 7 7 8 6 8 7 7 17 22 19
13 10 5 4 9 1 4 8 9 6 7 6 6 7 9 11 13 11 10 9 9 5 5 6 5 6 5 4 3 4 4 5 5 5 4 6 6 6 5 4 5 9 14
Wind_Direction
166 156 157 158 161 154 163 167 161 152 157 162 151 160 164 136 132 133 144 149 145 148 149 147 145 142 139 138 139 134 133 135 127 124 119 116 113 107 101 93 84 82 78
158 158 156 176 170 159 161 169 150 155 159 157 159 161 153 149 148 143 144 158 159 160 159 158 153 152 151 150 155 150 154 155 149 146 144 136 130 127 119 109 104 103 89
156 152 166 174 156 164 168 122 158 157 160 161 158 163 151 157 141 144 154 159 169 173 171 164 170 168 166 167 166 166 164 168 171 168 168 168 165 163 163 163 168 159 154
128 108 135 171 156 143 151 147 168 155 162 162 156 167 159 162 158 156 167 161 168 177 185 181 181 180 184 182 183 183 184 187 193 192 189 187 190 191 196 201 209 208 222
103 110 162 157 146 132 116 124 160 137 167 166 173 171 167 167 170 175 172 182 173 180 180 188 192 192 194 198 197 200 202 203 206 210 209 206 208 208 213 219 223 231 233
159 175 175 165 148 144 148 153 130 188 181 180 185 165 179 175 180 184 187 189 185 201 198 173 195 205 205 207 210 212 214 216 218 219 218 220 221 220 223 229 232 236 242
176 182 163 162 144 137 164 173 176 188 185 187 179 168 179 198 196 200 198 194 203 202 211 219 186 207 203 212 214 221 223 221 219 223 224 224 228 230 231 235 238 242 244
182 176 160 174 159 169 174 180 182 171 175 185 189 179 183 191 213 217 205 206 213 214 210 217 217 221 210 210 216 220 227 229 229 229 228 227 231 231 237 238 242 245 246
170 188 169 171 155 179 182 190 182 179 172 185 226 246 194 202 181 188 212 223 220 216 226 211 220 230 224 231 219 222 216 229 236 241 249 243 237 237 240 246 249 250 250
176 178 168 171 178 184 182 193 178 180 190 183 195 250 265 270 166 188 230 221 203 225 215 229 230 240 228 224 228 223 212 222 228 235 244 258 263 266 266 265 261 261 257
184 186 174 176 177 189 195 182 159 200 202 216 192 196 220 218 241 227 235 218 212 223 224 221 227 230 226 227 228 227 228 214 221 234 242 249 257 259 262 267 274 278 280
182 186 177 172 184 202 207 188 183 208 212 216 214 196 204 206 216 220 237 245 234 209 216 182 213 240 237 228 235 225 212 212 224 235 232 228 232 243 257 267 277 282 282
186 183 181 183 201 209 219 202 215 213 219 223 222 224 222 234 243 226 248 259 254 193 228 223 224 240 232 232 230 214 216 215 222 220 207 208 214 234 256 272 281 283 285
192 188 197 199 203 218 216 226 215 217 216 225 233 233 232 231 230 236 235 249 216 243 235 236 227 219 223 222 222 215 214 208 201 203 202 211 221 241 262 279 284 290 291
198 199 201 203 209 210 219 230 222 223 224 226 231 237 234 237 240 241 244 225 209 229 223 224 207 217 217 209 179 178 194 195 196 200 210 218 232 258 276 280 283 283 292
209 203 205 210 210 215 220 230 232 223 225 223 229 236 239 237 236 237 224 219 210 227 252 215 210 210 189 189 181 190 213 178 195 205 214 220 236 263 276 279 284 291 292
202 211 206 211 213 215 222 226 233 230 231 231 231 230 238 235 234 205 214 205 212 208 232 242 245 171 183 201 155 194 202 213 211 216 214 220 239 272 284 282 283 285 288
202 208 204 209 213 217 220 223 226 225 229 236 240 234 228 219 219 216 204 205 204 206 223 217 196 185 192 184 198 189 218 223 242 191 194 207 248 269 268 272 273 279 284
207 208 213 213 213 217 218 222 225 229 231 237 239 235 225 225 227 223 220 218 201 206 210 209 195 178 179 170 180 194 209 261 252 198 211 249 254 249 248 252 260 261 263
211 213 214 218 220 221 224 228 230 234 238 240 237 239 234 236 232 223 208 216 205 201 211 213 153 159 172 171 163 186 202 208 230 249 242 245 241 240 237 250 248 250 252
211 213 217 221 224 225 228 230 229 233 237 234 231 229 219 223 226 212 204 209 194 195 194 195 182 149 157 164 182 169 202 220 269 248 257 256 229 233 242 245 248 247 245
216 216 220 219 223 226 220 214 230 234 231 229 227 224 218 212 220 202 202 201 202 190 193 184 178 195 172 165 153 171 164 211 251 238 236 254 260 270 273 270 267 247 252
212 217 219 219 222 224 209 206 207 225 222 224 229 219 199 197 171 128 103 95 74 81 104 148 146 90 121 150 137 168 213 230 246 259 271 267 276 274 275 274 270 265 251
214 215 218 220 224 224 197 195 190 207 227 237 219 197 189 167 160 141 128 104 96 80 68 71 35 99 64 71 115 174 222 248 268 270 268 264 259 263 273 284 276 271 271
211 218 218 219 222 228 173 181 170 187 143 112 103 129 146 137 142 143 133 127 116 105 90 89 96 81 63 55 45 235 214 230 249 261 262 257 261 275 269 298 285 273 268
210 205 200 26 27 137 108 154 147 138 128 112 88 88 111 122 125 120 120 123 116 114 127 103 94 99 123 143 155 245 253 250 262 283 289 262 276 302 282 269 291 301 298